Flag for U.S.A. Weather past 2 weeks in Concord, California, U.S.A.

Now
63 °F

Passing clouds.


Feels Like: 63 °F
Forecast: 62 / 82 °F
Wind: 6 mph from Southwest

Location: Buchanan Field

Current Time: Jul 6, 2015 at 12:18:27 AM

Latest Report: Jul 5, 2015 at 11:53 PM


Visibility: 10 mi

Pressure: 29.94 "Hg

Humidity: 75%

Dew point: 55 °F

Location of ConcordLocation

Historic Weather in Concord — Graph

°F

Concord temperature yesterday

Maximum temperature yesterday: 78 °F (at 12:53 PM)
Minimum temperature yesterday: 62 °F (at 4:02 AM)
Average temperature yesterday: 68 °F

Past Weeks' High & Low Weather Summary

 TemperatureHumidityPressure
High105 °F (Jun 30, 5:53 PM)81% (Jun 29, 12:53 AM)30.00 "Hg (Jun 29, 12:53 AM)
Low56 °F (Jun 21, 3:53 AM)6% (Jun 30, 5:53 PM)29.72 "Hg (Jun 30, 5:53 PM)
Average73 °F51%29.86 "Hg
* Reported Jun 20 10:53 PM — Jul 5 10:53 PM, Concord, Weather by CustomWeather, © 2015

Note: Actual official high and low records may vary slightly from our data, if they occured in-between our weather recording intervals... More about our weather records

Advertising

Concord weather history for previous 24 hours

 ConditionsComfort  
Time TempWeatherWind HumidityBarometerVisibility
10:53 PM
Sun, Jul 5
63 °FPassing clouds.8 mph75%29.93 "Hg10 mi
9:53 PM64 °FPassing clouds.6 mph73%29.91 "Hg10 mi
8:53 PM66 °FSunny.10 mph68%29.90 "Hg10 mi
7:53 PM68 °FScattered clouds.10 mph63%29.89 "Hg10 mi
6:53 PM71 °FSunny.12 mph57%29.87 "Hg10 mi
5:53 PM73 °FSunny.15 mph53%29.88 "Hg10 mi
4:53 PM76 °FSunny.15 mph48%29.88 "Hg10 mi
3:53 PM76 °FSunny.16 mph48%29.88 "Hg10 mi
2:53 PM77 °FSunny.20 mph47%29.89 "Hg10 mi
1:53 PM77 °FSunny.15 mph47%29.90 "Hg10 mi
12:53 PM78 °FSunny.16 mph45%29.91 "Hg10 mi
11:53 AM75 °FSunny.15 mph50%29.91 "Hg10 mi
10:53 AM72 °FSunny.15 mph57%29.92 "Hg10 mi
10:00 AM69 °FPassing clouds.21 mph63%29.95 "Hg10 mi
8:53 AM66 °FPartly sunny.17 mph68%29.90 "Hg10 mi
8:03 AM66 °FPartly sunny.13 mph68%29.93 "Hg10 mi
7:53 AM65 °FScattered clouds.14 mph70%29.89 "Hg10 mi
6:53 AM63 °FSunny.6 mph75%29.87 "Hg10 mi
5:53 AM62 °FPassing clouds.10 mph78%29.86 "Hg10 mi
4:53 AM62 °FOvercast.14 mph78%29.85 "Hg10 mi
4:02 AM62 °FPassing clouds.13 mph78%29.88 "Hg10 mi
3:53 AM63 °FPassing clouds.10 mph75%29.84 "Hg10 mi
2:53 AM63 °FClear.6 mph75%29.82 "Hg10 mi
1:53 AM63 °FClear.9 mph78%29.82 "Hg10 mi
12:53 AM63 °FClear.12 mph75%29.82 "Hg10 mi
Weather by CustomWeather, © 2015

See weather overviewHow to use our weather pages